• In Uzbekistan
  • List of Countries
  • For 7 days
  • Water Temperature
  • Satellite Maps
  • Weather Map
  • Weather Widgets
  • user-avatar
    Login

    Hourly Weather Monakovo

    Today, 22 July, Sunday

    Time Temperature Precipitation Wind Pressure Humidity
    00:00 +19°C° 0 mm 3 mps 739 mmHg 95%
    01:00 +19°C° 0 mm 3 mps 739 mmHg 95%
    02:00 +19°C° 0 mm 3 mps 739 mmHg 96%
    03:00 +18°C° 0 mm 3 mps 739 mmHg 96%
    04:00 +18°C° 0 mm 3 mps 739 mmHg 95%
    05:00 +19°C° 0 mm 3 mps 739 mmHg 94%
    06:00 +19°C° 0 mm 4 mps 740 mmHg 93%
    07:00 +20°C° 0.1 mm 4 mps 740 mmHg 89%
    08:00 +21°C° 0.1 mm 4 mps 740 mmHg 85%
    09:00 +23°C° 0.1 mm 5 mps 740 mmHg 81%
    10:00 +23°C° 0.3 mm 5 mps 740 mmHg 80%
    11:00 +23°C° 0.3 mm 6 mps 740 mmHg 79%
    12:00 +23°C° 0.3 mm 6 mps 740 mmHg 79%
    13:00 +24°C° 0.2 mm 6 mps 740 mmHg 78%
    14:00 +24°C° 0.2 mm 6 mps 740 mmHg 76%
    15:00 +24°C° 0.2 mm 6 mps 740 mmHg 75%
    16:00 +23°C° 0.2 mm 6 mps 740 mmHg 78%
    17:00 +22°C° 0.2 mm 6 mps 740 mmHg 81%
    18:00 +21°C° 0.2 mm 6 mps 740 mmHg 84%
    19:00 +21°C° 0 mm 6 mps 740 mmHg 84%
    20:00 +20°C° 0 mm 6 mps 740 mmHg 85%
    21:00 +20°C° 0 mm 6 mps 740 mmHg 86%
    22:00 +19°C° 0 mm 6 mps 740 mmHg 86%
    23:00 +19°C° 0 mm 6 mps 740 mmHg 86%

    Tomorrow, 23 July, Monday

    Time Temperature Precipitation Wind Pressure Humidity
    00:00 +19°C° 0 mm 5 mps 740 mmHg 86%
    01:00 +17°C° 0.1 mm 5 mps 740 mmHg 86%
    02:00 +17°C° 0.1 mm 5 mps 740 mmHg 87%
    03:00 +16°C° 0.1 mm 5 mps 740 mmHg 87%
    04:00 +16°C° 0.2 mm 5 mps 740 mmHg 87%
    05:00 +16°C° 0.2 mm 5 mps 740 mmHg 87%
    06:00 +16°C° 0.2 mm 5 mps 740 mmHg 87%
    07:00 +17°C° 0 mm 5 mps 741 mmHg 84%
    08:00 +19°C° 0 mm 6 mps 741 mmHg 81%
    09:00 +20°C° 0 mm 6 mps 741 mmHg 79%
    10:00 +21°C° 0 mm 6 mps 741 mmHg 77%
    11:00 +23°C° 0 mm 6 mps 741 mmHg 75%
    12:00 +24°C° 0 mm 6 mps 741 mmHg 73%
    13:00 +24°C° 0.7 mm 6 mps 741 mmHg 74%
    14:00 +25°C° 0.7 mm 5 mps 741 mmHg 76%
    15:00 +26°C° 0.7 mm 5 mps 741 mmHg 77%
    16:00 +25°C° 0.2 mm 5 mps 741 mmHg 80%
    17:00 +23°C° 0.2 mm 5 mps 741 mmHg 82%
    18:00 +23°C° 0.2 mm 5 mps 741 mmHg 84%
    19:00 +22°C° 0.2 mm 5 mps 741 mmHg 85%
    20:00 +22°C° 0.2 mm 5 mps 741 mmHg 86%
    21:00 +21°C° 0.2 mm 5 mps 742 mmHg 87%
    22:00 +20°C° 0.2 mm 5 mps 742 mmHg 87%
    23:00 +20°C° 0.2 mm 5 mps 742 mmHg 87%

    Day after tomorrow, 24 July, Tuesday

    Time Temperature Precipitation Wind Pressure Humidity
    00:00 +19°C° 0.2 mm 5 mps 742 mmHg 87%
    01:00 +19°C° 0 mm 5 mps 742 mmHg 88%
    02:00 +19°C° 0 mm 4 mps 742 mmHg 89%
    03:00 +18°C° 0 mm 4 mps 742 mmHg 90%
    04:00 +18°C° 0 mm 4 mps 742 mmHg 90%
    05:00 +18°C° 0 mm 4 mps 743 mmHg 89%
    06:00 +18°C° 0 mm 4 mps 743 mmHg 89%
    07:00 +20°C° 0 mm 4 mps 743 mmHg 85%
    08:00 +21°C° 0 mm 4 mps 743 mmHg 81%
    09:00 +22°C° 0 mm 5 mps 743 mmHg 77%
    10:00 +23°C° 0 mm 5 mps 744 mmHg 73%
    11:00 +26°C° 0 mm 5 mps 744 mmHg 69%
    12:00 +27°C° 0 mm 5 mps 744 mmHg 65%
    13:00 +27°C° 0.1 mm 5 mps 744 mmHg 65%
    14:00 +27°C° 0.1 mm 5 mps 744 mmHg 65%
    15:00 +27°C° 0.1 mm 5 mps 744 mmHg 66%
    16:00 +26°C° 0.1 mm 4 mps 744 mmHg 69%
    17:00 +25°C° 0.1 mm 4 mps 745 mmHg 71%
    18:00 +25°C° 0.1 mm 3 mps 745 mmHg 74%
    19:00 +23°C° 0 mm 4 mps 745 mmHg 73%
    20:00 +22°C° 0 mm 4 mps 745 mmHg 71%
    21:00 +21°C° 0 mm 4 mps 745 mmHg 70%
    22:00 +21°C° 0 mm 4 mps 745 mmHg 69%
    23:00 +20°C° 0 mm 4 mps 746 mmHg 67%

    25 July, Wednesday

    Time Temperature Precipitation Wind Pressure Humidity
    00:00 +20°C° 0 mm 4 mps 746 mmHg 66%
    01:00 +20°C° 0 mm 4 mps 746 mmHg 63%
    02:00 +20°C° 0 mm 4 mps 746 mmHg 61%
    03:00 +20°C° 0 mm 5 mps 746 mmHg 58%
    04:00 +19°C° 0 mm 5 mps 746 mmHg 61%
    05:00 +19°C° 0 mm 5 mps 746 mmHg 63%
    06:00 +19°C° 0 mm 5 mps 746 mmHg 66%
    07:00 +20°C° 0 mm 5 mps 746 mmHg 64%
    08:00 +21°C° 0 mm 5 mps 747 mmHg 63%
    09:00 +23°C° 0 mm 6 mps 747 mmHg 62%
    10:00 +24°C° 0 mm 6 mps 747 mmHg 56%
    11:00 +27°C° 0 mm 6 mps 747 mmHg 51%
    12:00 +28°C° 0 mm 7 mps 747 mmHg 46%
    13:00 +28°C° 0 mm 6 mps 747 mmHg 48%
    14:00 +28°C° 0 mm 6 mps 747 mmHg 49%
    15:00 +28°C° 0 mm 6 mps 747 mmHg 51%
    16:00 +27°C° 0 mm 5 mps 747 mmHg 55%
    17:00 +26°C° 0 mm 4 mps 747 mmHg 60%
    18:00 +26°C° 0 mm 3 mps 747 mmHg 64%
    19:00 +25°C° 0 mm 4 mps 748 mmHg 65%
    20:00 +23°C° 0 mm 4 mps 748 mmHg 67%
    21:00 +22°C° 0 mm 4 mps 748 mmHg 68%
    22:00 +21°C° 0 mm 4 mps 748 mmHg 68%
    23:00 +21°C° 0 mm 4 mps 748 mmHg 67%

    26 July, Thursday

    Time Temperature Precipitation Wind Pressure Humidity
    00:00 +20°C° 0 mm 4 mps 748 mmHg 66%
    01:00 +20°C° 0 mm 4 mps 748 mmHg 69%
    02:00 +19°C° 0 mm 4 mps 748 mmHg 73%
    03:00 +19°C° 0 mm 4 mps 748 mmHg 76%
    04:00 +19°C° 0 mm 4 mps 749 mmHg 76%
    05:00 +20°C° 0 mm 4 mps 749 mmHg 76%
    06:00 +20°C° 0 mm 5 mps 749 mmHg 76%
    07:00 +22°C° 0 mm 5 mps 749 mmHg 71%
    08:00 +23°C° 0 mm 6 mps 749 mmHg 67%
    09:00 +26°C° 0 mm 6 mps 749 mmHg 62%
    10:00 +26°C° 0 mm 6 mps 749 mmHg 64%
    11:00 +26°C° 0 mm 5 mps 749 mmHg 65%
    12:00 +26°C° 0 mm 5 mps 749 mmHg 66%
    13:00 +26°C° 0 mm 5 mps 749 mmHg 65%
    14:00 +27°C° 0 mm 5 mps 749 mmHg 64%
    15:00 +27°C° 0 mm 5 mps 750 mmHg 63%
    16:00 +27°C° 0 mm 5 mps 750 mmHg 64%
    17:00 +28°C° 0 mm 5 mps 750 mmHg 65%
    18:00 +28°C° 0 mm 4 mps 750 mmHg 66%
    19:00 +26°C° 0 mm 4 mps 750 mmHg 69%
    20:00 +25°C° 0 mm 4 mps 750 mmHg 72%
    21:00 +23°C° 0 mm 4 mps 750 mmHg 75%
    22:00 +22°C° 0 mm 4 mps 750 mmHg 76%
    23:00 +22°C° 0 mm 4 mps 751 mmHg 76%

    27 July, Friday

    Time Temperature Precipitation Wind Pressure Humidity
    00:00 +21°C° 0 mm 3 mps 751 mmHg 77%
    01:00 +21°C° 0 mm 3 mps 751 mmHg 78%
    02:00 +20°C° 0 mm 3 mps 751 mmHg 78%
    03:00 +20°C° 0 mm 3 mps 751 mmHg 79%
    04:00 +20°C° 0 mm 3 mps 751 mmHg 79%
    05:00 +20°C° 0 mm 3 mps 751 mmHg 79%
    06:00 +20°C° 0 mm 4 mps 752 mmHg 79%
    07:00 +22°C° 0 mm 4 mps 752 mmHg 74%
    08:00 +25°C° 0 mm 4 mps 752 mmHg 70%
    09:00 +26°C° 0 mm 4 mps 752 mmHg 65%
    10:00 +28°C° 0 mm 4 mps 752 mmHg 60%
    11:00 +29°C° 0 mm 4 mps 752 mmHg 55%
    12:00 +30°C° 0 mm 4 mps 752 mmHg 50%
    13:00 +30°C° 0 mm 4 mps 752 mmHg 50%
    14:00 +30°C° 0 mm 4 mps 751 mmHg 50%
    15:00 +30°C° 0 mm 4 mps 751 mmHg 50%
    16:00 +29°C° 0.2 mm 4 mps 751 mmHg 56%
    17:00 +29°C° 0.2 mm 4 mps 751 mmHg 61%
    18:00 +28°C° 0.2 mm 4 mps 751 mmHg 67%
    19:00 +26°C° 0.1 mm 3 mps 751 mmHg 73%
    20:00 +24°C° 0.1 mm 3 mps 751 mmHg 78%
    21:00 +22°C° 0.1 mm 3 mps 751 mmHg 84%
    22:00 +21°C° 0 mm 3 mps 751 mmHg 85%
    23:00 +21°C° 0 mm 3 mps 751 mmHg 87%
    Show more